Location: Astronomy Club of Akron Observatory
(40.9700°N, 81.5606°W)
Time: 09:11:38
(UTC-04:00)

Envisat - Visible Passes

Search period start: 20 April 2019 00:00
Search period end: 30 April 2019 00:00
Orbit: 764 x 766 km, 98.2° (Epoch: 19 April)

Date Brightness Start Highest point End Pass type
(mag) Time Alt. Az. Time Alt. Az. Time Alt. Az.
21 Apr 5.6 21:06:49 10° SW 21:10:34 21° W 21:14:19 10° NW visible
23 Apr 6.1 21:34:52 10° WSW 21:36:22 11° W 21:37:54 10° WNW visible
24 Apr 5.3 20:55:03 10° SSW 20:59:15 26° W 21:03:27 10° NW visible
26 Apr 5.8 21:22:14 10° SW 21:25:01 15° W 21:27:48 10° WNW visible
27 Apr 4.9 20:43:25 10° SSW 20:47:56 33° W 20:52:30 10° NNW visible
29 Apr 5.7 21:10:09 10° SW 21:13:40 19° W 21:17:12 10° NW visible
